Weather History for New York, NY

Change the Weather History Date:

Monday, October 25, 2010

  Actual Average Record
Temperature  
Mean Temperature 65 °F 55 °F  
Max Temperature 74 °F 62 °F 78 °F (2001)
Min Temperature 55 °F 48 °F 37 °F (1962)
Degree Days  
Heating Degree Days 0 10  
Month to date heating degree days 127 170  
Since 1 July heating degree days 127 205  
Cooling Degree Days 0 0  
Month to date cooling degree days 10 20  
Year to date cooling degree days 1709 1210  
Growing Degree Days 14 (Base 50)    
Moisture  
Dew Point 56 °F    
Average Humidity 77    
Maximum Humidity 93    
Minimum Humidity 61    
Precipitation  
Precipitation 0.00 in 0.12 in 1.52 in (1958)
Month to date precipitation 4.32 3.09  
Year to date precipitation 35.44 37.07  
Snow  
Snow 0.00 in 0.00 in - ()
Month to date snowfall 0.0 0.0  
Since 1 July snowfall 0.0 0.0  
Snow Depth 0.00 in    
Sea Level Pressure  
Sea Level Pressure 29.92 in    
Wind  
Wind Speed 8 mph (South)    
Max Wind Speed 18 mph    
Max Gust Speed 22 mph    
Visibility 9 miles    
Events      
T = Trace of Precipitation, MM = Missing Value Source: NWS Daily Summary

Daily Weather History Graph

Daily Weather History Graph

Search for Another Location

Airport:

Trip Planner

Search our weather history database for the weather conditions in past years. The results will help you decide how hot, cold, wet, or windy it might be!

Date:

Astronomy

Oct. 25, 2010 Rise Set
Actual Time 7:17 AM EDT 6:00 PM EDT
Civil Twilight 6:49 AM EDT 6:28 PM EDT
Nautical Twilight 6:17 AM EDT 7:00 PM EDT
Astronomical Twilight 5:45 AM EDT 7:32 PM EDT
Moon 7:25 PM EDT (10/25) 9:59 AM EDT (10/25)
Length of Visible Light 11h 39m
Length of Day
10h 42m
Waning Gibbous, 93% of the Moon is Illuminated
Oct 25
Waning Gibbous
Oct 30
Last Quarter
Nov 6
New
Nov 13
First Quarter
Nov 21
Full

Hourly Weather History & Observations

Time (EDT) Temp. Dew Point Humidity Pressure Visibility Wind Dir Wind Speed Gust Speed Precip Events Conditions
12:51 AM 57.9 °F 55.0 °F 90% 30.01 in 8.0 mi East 5.8 mph - N/A   Mostly Cloudy
1:51 AM 57.9 °F 55.0 °F 90% 30.00 in 7.0 mi East 4.6 mph - N/A   Scattered Clouds
2:51 AM 57.0 °F 54.0 °F 89% 30.00 in 6.0 mi Calm Calm - N/A   Mostly Cloudy
3:26 AM 57.2 °F 53.6 °F 88% 29.99 in 6.0 mi Calm Calm - N/A   Mostly Cloudy
3:51 AM 57.0 °F 54.0 °F 89% 29.99 in 6.0 mi Calm Calm - N/A   Mostly Cloudy
4:51 AM 55.0 °F 51.1 °F 86% 29.98 in 10.0 mi Calm Calm - N/A   Mostly Cloudy
5:51 AM 55.9 °F 50.0 °F 80% 29.98 in 10.0 mi South 3.5 mph - N/A   Mostly Cloudy
6:51 AM 57.0 °F 50.0 °F 77% 29.98 in 10.0 mi South 5.8 mph - N/A   Mostly Cloudy
7:51 AM 57.0 °F 50.0 °F 77% 29.97 in 10.0 mi South 6.9 mph - N/A   Mostly Cloudy
8:51 AM 60.1 °F 52.0 °F 75% 29.99 in 8.0 mi South 6.9 mph - N/A   Mostly Cloudy
9:51 AM 63.0 °F 55.0 °F 75% 29.98 in 10.0 mi SSW 9.2 mph - N/A   Scattered Clouds
10:51 AM 64.9 °F 55.9 °F 73% 29.96 in 10.0 mi SW 11.5 mph - N/A   Mostly Cloudy
11:51 AM 68.0 °F 57.0 °F 68% 29.95 in 10.0 mi SW 9.2 mph - N/A   Mostly Cloudy
12:51 PM 71.1 °F 57.9 °F 63% 29.93 in 10.0 mi SW 10.4 mph - N/A   Mostly Cloudy
1:51 PM 73.0 °F 59.0 °F 61% 29.90 in 10.0 mi Variable 3.5 mph - N/A   Mostly Cloudy
2:51 PM 72.0 °F 60.1 °F 66% 29.87 in 10.0 mi SE 10.4 mph - N/A   Mostly Cloudy
3:51 PM 73.0 °F 59.0 °F 61% 29.85 in 10.0 mi SSE 10.4 mph - N/A   Mostly Cloudy
4:51 PM 73.0 °F 59.0 °F 61% 29.83 in 10.0 mi SSE 10.4 mph - N/A   Mostly Cloudy
5:51 PM 68.0 °F 59.0 °F 73% 29.84 in 10.0 mi South 13.8 mph - N/A   Mostly Cloudy
6:51 PM 66.9 °F 60.1 °F 79% 29.84 in 10.0 mi South 12.7 mph - N/A   Mostly Cloudy
7:51 PM 69.1 °F 60.1 °F 73% 29.84 in 10.0 mi SSE 9.2 mph - N/A   Mostly Cloudy
8:51 PM 66.0 °F 60.1 °F 81% 29.82 in 10.0 mi South 17.3 mph - N/A   Mostly Cloudy
9:51 PM 66.0 °F 60.1 °F 81% 29.81 in 10.0 mi South 10.4 mph - N/A   Mostly Cloudy
10:51 PM 66.0 °F 60.1 °F 81% 29.81 in 10.0 mi South 9.2 mph - N/A   Mostly Cloudy
11:51 PM 66.0 °F 60.1 °F 81% 29.80 in 10.0 mi SSW 6.9 mph - N/A   Mostly Cloudy